Saint Paul, MN

1:28 PM CST on December 05, 2016 (GMT -0600)
Saint Paul Downtown-Holman

Weather History for KSTP - August, 2014

Change the Weather History Date:

Wednesday, August 13, 2014

  Actual Average Record
Temperature  
Mean Temperature 72 °F -  
Max Temperature 82 °F 78 °F 89 °F (1996)
Min Temperature 62 °F 58 °F 48 °F (2004)
Cooling Degree Days 7    
Growing Degree Days 22 (Base 50)    
Moisture  
Dew Point 57 °F    
Average Humidity 60    
Maximum Humidity 87    
Minimum Humidity 44    
Precipitation  
Precipitation 0.00 in - - ()
Sea Level Pressure  
Sea Level Pressure 30.04 in    
Wind  
Wind Speed 3 mph (North)    
Max Wind Speed 12 mph    
Max Gust Speed 16 mph    
Visibility 10 miles    
Events      
Averages and records for this station are not official NWS values.
T = Trace of Precipitation, MM = Missing Value Source: NWS Daily Summary

Daily Weather History Graph

Daily Weather History Graph

Search for Another Location

Airport or City:

Trip Planner

Search our weather history database for the weather conditions in past years. The results will help you decide how hot, cold, wet, or windy it might be!

Date:

Astronomy

Aug. 13, 2014 Rise Set
Actual Time 6:11 AM CDT 8:21 PM CDT
Civil Twilight 5:39 AM CDT 8:53 PM CDT
Nautical Twilight 4:59 AM CDT 9:33 PM CDT
Astronomical Twilight 4:15 AM CDT 10:16 PM CDT
Moon 9:54 PM CDT (8/13) 9:51 AM CDT (8/13)
Length of Visible Light 15h 13m
Length of Day
14h 09m
Waning Gibbous, 87% of the Moon is Illuminated
Aug 13
Waning Gibbous
Aug 17
Last Quarter
Aug 25
New
Sep 2
First Quarter
Sep 8
Full

Hourly Weather History & Observations

Time (CDT) Temp. Heat Index Dew Point Humidity Pressure Visibility Wind Dir Wind Speed Gust Speed Precip Events Conditions
12:53 AM 66.9 °F - 57.0 °F 70% 30.01 in 10.0 mi Calm Calm - N/A   Clear
1:53 AM 66.0 °F - 57.0 °F 73% 30.01 in 10.0 mi NW 3.5 mph - N/A   Clear
2:53 AM 64.9 °F - 55.9 °F 73% 30.01 in 10.0 mi Calm Calm - N/A   Clear
3:53 AM 64.0 °F - 60.1 °F 87% 30.01 in 10.0 mi Calm Calm - N/A   Partly Cloudy
4:53 AM 63.0 °F - 57.9 °F 84% 30.02 in 10.0 mi Calm Calm - N/A   Clear
5:53 AM 62.1 °F - 57.9 °F 86% 30.04 in 10.0 mi NNW 3.5 mph - N/A   Scattered Clouds
9:53 AM 71.6 °F - 60.8 °F 69% 30.08 in 10.0 mi Calm Calm - N/A   Scattered Clouds
10:53 AM 75.0 °F - 61.0 °F 62% 30.07 in 10.0 mi WNW 6.9 mph - N/A   Clear
11:53 AM 79.0 °F - 62.1 °F 56% 30.06 in 10.0 mi North 4.6 mph - N/A   Clear
12:53 PM 80.1 °F 80.9 °F 60.1 °F 50% 30.06 in 10.0 mi NNW 11.5 mph 16.1 mph N/A   Partly Cloudy
1:53 PM 78.1 °F - 59.0 °F 52% 30.06 in 10.0 mi North 5.8 mph - N/A   Partly Cloudy
2:53 PM 82.0 °F 82.0 °F 57.9 °F 44% 30.04 in 10.0 mi North - - N/A   Clear
3:53 PM 80.1 °F 80.4 °F 57.0 °F 45% 30.04 in 10.0 mi North 6.9 mph - N/A   Clear
4:53 PM 81.0 °F 81.0 °F 57.0 °F 44% 30.04 in 10.0 mi NE 11.5 mph - N/A   Partly Cloudy
5:53 PM 80.1 °F 80.4 °F 57.0 °F 45% 30.04 in 10.0 mi NE 8.1 mph - N/A   Clear
6:53 PM 78.1 °F - 55.0 °F 45% 30.04 in 10.0 mi NE 10.4 mph - N/A   Clear
7:53 PM 75.0 °F - 54.0 °F 48% 30.04 in 10.0 mi NE 9.2 mph - N/A   Clear
8:53 PM 72.0 °F - 54.0 °F 53% 30.05 in 10.0 mi Calm Calm - N/A   Clear
9:53 PM 69.1 °F - 55.0 °F 61% 30.07 in 10.0 mi ENE 5.8 mph - N/A   Clear
11:53 PM 66.9 °F - 53.1 °F 61% 30.09 in 10.0 mi Calm Calm - N/A   Clear